Home > Weather > Szczecin > Past weeks

Flag for Poland Past Weather in Szczecin, Poland — Yesterday and Last 2 Weeks

Now
75 °F

Sunny.


Feels Like: 77 °F
Forecast: 61 / 76 °F
Wind: 3 mph from North

Location: Szczecin Airport

Current Time: Jul 29, 2016 at 6:02:29 PM

Latest Report: Jul 29, 2016 at 5:30 PM


Visibility: 10 mi

Pressure: 29.83 "Hg

Humidity: 61%

Dew Point: 61 °F

Location of SzczecinLocation

Past Weather in Szczecin — Graph

°F

Szczecin Temperature Yesterday

Maximum temperature yesterday: 73 °F (at 4:30 PM)
Minimum temperature yesterday: 61 °F (at 5:30 AM)
Average temperature yesterday: 67 °F

High & Low Weather Summary for the Past Weeks

 TemperatureHumidityPressure
High84 °F (Jul 25, 4:30 PM)100% (Jul 14, 7:00 PM)30.21 "Hg (Jul 14, 7:00 PM)
Low48 °F (Jul 20, 5:00 AM)37% (Jul 21, 5:00 PM)29.83 "Hg (Jul 14, 6:30 PM)
Average66 °F77%30.04 "Hg
* Reported Jul 14 5:00 PM — Jul 29 5:00 PM, Szczecin, Weather by CustomWeather, © 2016

Note: Actual official high and low records may vary slightly from our data, if they occured in-between our weather recording intervals... More about our weather records

Advertising

Szczecin Weather History for the Previous 24 Hours

Scroll right to see more
 ConditionsComfort  
Time TempWeatherWind HumidityBarometerVisibility
5:00 PM
Fri, Jul 29
73 °FPassing clouds.3 mph69%29.83 "HgN/A
4:30 PM72 °FPassing clouds.5 mph78%29.83 "HgN/A
4:00 PM68 °FScattered clouds.3 mph83%29.83 "HgN/A
3:30 PM68 °FThunderstorms. Partly sunny.17 mph83%29.83 "HgN/A
3:00 PM75 °FPassing clouds.9 mph61%29.83 "HgN/A
2:30 PM75 °FPassing clouds.9 mph61%29.83 "HgN/A
2:00 PM73 °FScattered clouds.10 mph74%29.83 "HgN/A
1:30 PM70 °FBroken clouds.7 mph78%29.83 "HgN/A
1:00 PM70 °FBroken clouds.8 mph78%29.86 "HgN/A
12:30 PM68 °FBroken clouds.8 mph83%29.86 "HgN/A
12:00 PM70 °FScattered clouds.8 mph78%29.86 "HgN/A
11:30 AM66 °FPartly sunny.6 mph83%29.86 "HgN/A
11:00 AM66 °FPartly sunny.6 mph83%29.86 "HgN/A
10:30 AM64 °FPartly sunny.6 mph94%29.89 "HgN/A
10:00 AM64 °FBroken clouds.6 mph94%29.89 "HgN/A
9:30 AM63 °FSprinkles. Broken clouds.3 mph100%29.89 "HgN/A
9:00 AM63 °FPartly sunny.6 mph100%29.89 "HgN/A
8:30 AM63 °FScattered clouds.5 mph100%29.86 "Hg5 mi
8:00 AM63 °FPassing clouds.1 mph94%29.86 "HgN/A
7:30 AM63 °FPassing clouds.1 mph94%29.86 "Hg5 mi
7:00 AM63 °FSunny.6 mph94%29.86 "Hg10 mi
6:30 AM63 °FPassing clouds.6 mph94%29.89 "HgN/A
6:00 AM63 °FSprinkles. Passing clouds.6 mph94%29.89 "Hg4 mi
5:30 AM63 °FPassing clouds.3 mph94%29.89 "HgN/A
5:00 AM63 °FPartly cloudy.1 mph94%29.89 "HgN/A
4:30 AM63 °FThunderstorms. Partly cloudy.9 mph100%29.89 "Hg2 mi
4:00 AM63 °FPassing clouds.6 mph94%29.89 "HgN/A
3:30 AM61 °FClear.5 mph100%29.89 "Hg10 mi
3:00 AM61 °FClear.5 mph100%29.89 "Hg10 mi
2:30 AM63 °FClear.5 mph94%29.89 "Hg10 mi
2:00 AM63 °FClear.5 mph94%29.92 "Hg10 mi
1:30 AM61 °FPassing clouds.5 mph100%29.92 "HgN/A
1:00 AM64 °FPassing clouds.5 mph94%29.92 "HgN/A
12:30 AM64 °FClear.7 mph94%29.92 "Hg10 mi
12:00 AM64 °FClear.6 mph94%29.92 "Hg10 mi
11:30 PM
Thu, Jul 28
64 °FClear.6 mph94%29.95 "Hg10 mi
11:00 PM64 °FClear.7 mph94%29.95 "Hg10 mi
10:30 PM64 °FFog.6 mph94%29.95 "HgN/A
10:00 PM63 °FFog.3 mph100%29.95 "Hg4 mi
9:30 PM66 °FFog.2 mph88%29.95 "HgN/A
9:00 PM66 °FSunny.2 mph94%29.95 "Hg10 mi
8:30 PM68 °FSunny.2 mph83%29.92 "Hg10 mi
8:00 PM68 °FScattered clouds.3 mph83%29.95 "HgN/A
7:30 PM70 °FSprinkles. Broken clouds.10 mph73%29.95 "HgN/A
7:00 PM72 °FBroken clouds.2 mph69%29.92 "HgN/A
6:30 PM73 °FScattered clouds.3 mph65%29.95 "HgN/A
6:00 PM73 °FPassing clouds.2 mph65%29.95 "HgN/A
Weather by CustomWeather, © 2016

See weather overviewHow to use our weather pages